"Pseudo-MPEC" for P11JDIS

Created 2023 Sep 22 16:22:18 UT using Find_Orb

Click here for an explanation of pseudo-MPECs

 
 Astrometry: 
     P11JDIS* C2023 09 15Kdm!0G^p9-PyifA'`g+jA:(MfarkL@c,BepC#g]d=6T]X[DPH)@CF51
     P11JDIS  C2023 09 15CIqcdiTj/w+]mO`42%+Yi4n3dqp_:9beVLU0=NnJ1;yLPeQ[AdJVF51
     P11JDIS  C2023 09 15X7t)-AstrometryYxAcVnrge7o3;'Nn-$3^:THdZV_=r:%(bxI'iF51
     P11JDIS 3C2023 09 16?:*hR-Gek;?mY^'iCEa;aYUAaq?exb*8F*'x7(c\C\)@0FcV-YqfT14
     P11JDIS 3C2023 09 16hl'`elredacted;^MPws4XqK`4a]qj97U_Uelclick4\2)nn:!BkT14
     P11JDIS 3C2023 09 16xoY0g_J!F-LkdF`s1,aGs=PgZE[[A36`wWEG3k._6.#\HPmU7;N/T14
     P11JDIS 3C2023 09 16koijP$11kqh35hereFaw`x+=ZforTn(c_wknB`73j;x!,rthhc4*T14
     P11JDIS 3C2023 09 18`N(FF:x=Su.Hn9+^U):;^26LUS:_:iA`5explanation]:)6W61eT14
     P11JDIS 3C2023 09 18^)3R4K-eHR8(-lBl`e3TJn]`KtLj2UWdj(K.nNdFfl-2hyrTfL.6T14
     P11JDIS 3C2023 09 18@FQEt#i,XFKOP0w$Nwkt*#c)PqIY9w%jByG2`Z2e\a;G8@u5eJ?hT14

Station data:
(F51) Pan-STARRS 1, Haleakala  (N20.707234 W156.255910)  US/Hawaii.
   Observers J. Bulger, T. Lowe, A. Schultz, M. Willman. Measurers K.
   Chambers, S. Chastel, T. de Boer, L. Denneau, J. Fairlamb, H. Flewelling,
   M. Huber, C.-C. Lin, E. Magnier, Y. Ramanjooloo, R. Wainscoat, R. Weryk.
   1.8-m Ritchey-Chrétien + CCD.
(T14) Mauna Kea-UH/Tholen NEO Follow-Up (CFHT)  (N19.825252 W155.468876)
   US/Hawaii.  Observer R. Weryk. 3.6-m Canada-France-Hawaii Telescope.

Orbital elements:  P11JDIS
   Perihelion 2023 Oct 5.66845 +/- 0.0507 TT = 16:02:33 (JD 2460223.16845)
Epoch 2023 Sep 18.0 TT = JDT 2460205.5   Earth MOID: 0.2038      AutoNEOCP
M 351.46269537 +/- 0.08             (J2000 ecliptic)
n   0.48319494 +/- 0.00556          Peri.    2.48519 +/- 0.043
a   1.60837678 +/- 0.0123           Node     6.10083 +/- 0.029
e   0.2505705 +/- 0.00428           Incl.   15.84975 +/- 0.18
P   2.04/745.03d           H 24.29  G  0.15   U  9.3
q 1.20536489 +/- 0.00236    Q 2.01138867 +/- 0.0223
From 10 observations 2023 Sept. 15-18; mean residual 0".04
Residuals in arcseconds: 
230915 F51  .08+  .04+    230916 T14  .01-  .02+    230918 T14  .00   .01-    
230915 F51  .02-  .11-    230916 T14  .02-  .02+    230918 T14  .02-  .01-    
230915 F51  .10-  .06+    230916 T14  .04+  .04-    
230916 T14  .01+  .01+    230918 T14  .01+  .01+    

Ephemerides (geocentric):
Date (UTC) HH   RA             Dec           delta  r     elong  mag " sig PA
---- --------  ------------   ------------  ------ ------ -----  --- --------
2023 09 22 16  23 56 42.031   -14 37 53.93  .21127 1.2097 165.7 22.0 1.10  73
2023 09 22 17  23 56 35.918   -14 35 06.24  .21123 1.2096 165.8 22.0 1.12  74
2023 09 22 18  23 56 29.805   -14 32 18.43  .21119 1.2096 165.8 22.0 1.13  74
2023 09 22 19  23 56 23.692   -14 29 30.49  .21115 1.2096 165.8 22.0 1.15  75
2023 09 22 20  23 56 17.580   -14 26 42.42  .21112 1.2096 165.9 22.0 1.16  75
2023 09 22 21  23 56 11.469   -14 23 54.23  .21108 1.2095 165.9 22.0 1.18  75
2023 09 22 22  23 56 05.359   -14 21 05.92  .21104 1.2095 165.9 22.0 1.20  76
2023 09 22 23  23 55 59.249   -14 18 17.49  .21100 1.2095 165.9 22.0 1.21  76
2023 09 23 00  23 55 53.139   -14 15 28.93  .21097 1.2094 166.0 22.0 1.23  76
2023 09 23 01  23 55 47.031   -14 12 40.25  .21093 1.2094 166.0 22.0 1.24  77
2023 09 23 02  23 55 40.923   -14 09 51.46  .21089 1.2094 166.0 22.0 1.26  77
2023 09 23 03  23 55 34.816   -14 07 02.54  .21086 1.2094 166.1 22.0 1.28  78
2023 09 23 04  23 55 28.710   -14 04 13.50  .21082 1.2093 166.1 22.0 1.29  78
2023 09 23 05  23 55 22.604   -14 01 24.34  .21079 1.2093 166.1 22.0 1.31  78
2023 09 23 06  23 55 16.500   -13 58 35.07  .21075 1.2093 166.1 22.0 1.33  79
2023 09 23 07  23 55 10.396   -13 55 45.68  .21072 1.2093 166.2 22.0 1.35  79
2023 09 23 08  23 55 04.293   -13 52 56.17  .21068 1.2092 166.2 22.0 1.37  79
2023 09 23 09  23 54 58.191   -13 50 06.54  .21065 1.2092 166.2 22.0 1.38  80
2023 09 23 10  23 54 52.090   -13 47 16.80  .21062 1.2092 166.2 22.0 1.40  80
2023 09 23 11  23 54 45.990   -13 44 26.94  .21058 1.2092 166.3 22.0 1.42  80
2023 09 23 12  23 54 39.892   -13 41 36.97  .21055 1.2091 166.3 22.0 1.44  81
2023 09 23 13  23 54 33.794   -13 38 46.88  .21052 1.2091 166.3 22.0 1.46  81
2023 09 23 14  23 54 27.697   -13 35 56.69  .21049 1.2091 166.3 22.0 1.48  81
2023 09 23 15  23 54 21.601   -13 33 06.37  .21045 1.2091 166.4 22.0 1.50  82
2023 09 23 16  23 54 15.507   -13 30 15.95  .21042 1.2090 166.4 22.0 1.52  82
2023 09 23 17  23 54 09.413   -13 27 25.42  .21039 1.2090 166.4 22.0 1.54  82
2023 09 23 18  23 54 03.321   -13 24 34.77  .21036 1.2090 166.4 22.0 1.56  83
2023 09 23 19  23 53 57.230   -13 21 44.02  .21033 1.2090 166.5 22.0 1.58  83
2023 09 23 20  23 53 51.140   -13 18 53.15  .21030 1.2089 166.5 22.0 1.60  83
2023 09 23 21  23 53 45.052   -13 16 02.18  .21027 1.2089 166.5 22.0 1.62  84
2023 09 23 22  23 53 38.965   -13 13 11.10  .21024 1.2089 166.5 22.0 1.65  84
2023 09 23 23  23 53 32.879   -13 10 19.91  .21021 1.2089 166.6 22.0 1.67  84
2023 09 24 00  23 53 26.794   -13 07 28.61  .21018 1.2088 166.6 22.0 1.69  85
2023 09 24 01  23 53 20.711   -13 04 37.21  .21015 1.2088 166.6 22.0 1.71  85
2023 09 24 02  23 53 14.629   -13 01 45.71  .21012 1.2088 166.6 22.0 1.74  85
2023 09 24 03  23 53 08.549   -12 58 54.10  .21010 1.2088 166.6 22.0 1.76  86
2023 09 24 04  23 53 02.470   -12 56 02.38  .21007 1.2087 166.7 22.0 1.78  86
2023 09 24 05  23 52 56.393   -12 53 10.56  .21004 1.2087 166.7 22.0 1.81  86
2023 09 24 06  23 52 50.317   -12 50 18.64  .21002 1.2087 166.7 22.0 1.83  87
2023 09 24 07  23 52 44.243   -12 47 26.62  .20999 1.2087 166.7 22.0 1.85  87
2023 09 24 08  23 52 38.170   -12 44 34.49  .20996 1.2086 166.7 22.0 1.88  87
2023 09 24 09  23 52 32.099   -12 41 42.27  .20994 1.2086 166.8 22.0 1.90  88
2023 09 24 10  23 52 26.029   -12 38 49.94  .20991 1.2086 166.8 22.0 1.93  88
2023 09 24 11  23 52 19.961   -12 35 57.51  .20989 1.2086 166.8 22.0 1.95  88
2023 09 24 12  23 52 13.895   -12 33 04.99  .20986 1.2085 166.8 22.0 1.98  88
2023 09 24 13  23 52 07.830   -12 30 12.37  .20984 1.2085 166.8 22.0 2.01  89
2023 09 24 14  23 52 01.767   -12 27 19.65  .20981 1.2085 166.9 22.0 2.03  89
2023 09 24 15  23 51 55.706   -12 24 26.83  .20979 1.2085 166.9 22.0 2.06  89